Location: Bishausen
(51.6334°N, 9.9631°E)
Time: 08:12:06
(UTC+00:00)

FENGYUN 1C DEB - Visible Passes

Search period start: 07 October 2024 00:00
Search period end: 17 October 2024 00:00
Orbit: 764 x 781 km, 98.9° (Epoch: 06 October)

Date Brightness Start Highest point End Pass type
(mag) Time Alt. Az. Time Alt. Az. Time Alt. Az.
07 Oct ? 18:51:51 28° NE 18:51:51 28° NE 18:55:59 10° N visible
07 Oct ? 20:32:13 37° NW 20:32:13 37° NW 20:35:32 10° NNW visible
08 Oct ? 18:16:56 17° ENE 18:17:29 17° NE 18:20:39 10° NNE visible
08 Oct ? 19:57:18 48° N 19:57:18 48° N 20:00:58 10° NNW visible
08 Oct ? 21:37:40 14° WNW 21:37:40 14° WNW 21:38:50 10° NW visible
09 Oct ? 19:22:20 40° NNE 19:22:20 40° NNE 19:26:08 10° N visible
09 Oct ? 21:02:42 23° NW 21:02:42 23° NW 21:05:03 10° NNW visible
10 Oct ? 18:47:19 26° NE 18:47:19 26° NE 18:51:00 10° N visible
10 Oct ? 20:27:41 34° NW 20:27:41 34° NW 20:30:39 10° NNW visible
11 Oct ? 18:12:15 16° NE 18:12:31 16° NE 18:15:27 10° NNE visible
11 Oct ? 19:52:36 41° N 19:52:36 41° N 19:55:55 10° NNW visible
11 Oct ? 21:32:58 14° NW 21:32:58 14° NW 21:33:59 10° NW visible
12 Oct ? 19:17:29 34° NNE 19:17:29 34° NNE 19:20:53 10° N visible
12 Oct ? 20:57:50 22° NW 20:57:50 22° NW 20:59:55 10° NNW visible
13 Oct ? 18:42:18 23° NE 18:42:18 23° NE 18:45:33 10° N visible
13 Oct ? 20:22:39 31° NNW 20:22:39 31° NNW 20:25:19 10° NNW visible
14 Oct ? 18:07:05 14° NE 18:07:06 14° NE 18:09:44 10° NNE visible
14 Oct ? 19:47:26 35° N 19:47:26 35° N 19:50:22 10° NNW visible
14 Oct ? 21:27:46 13° NW 21:27:46 13° NW 21:28:39 10° NW visible
15 Oct ? 19:12:09 29° NNE 19:12:09 29° NNE 19:15:09 10° N visible
15 Oct ? 20:52:29 21° NW 20:52:29 21° NW 20:54:19 10° NNW visible
16 Oct ? 18:36:50 20° NE 18:36:50 20° NE 18:39:38 10° N visible
16 Oct ? 20:17:09 28° NNW 20:17:09 28° NNW 20:19:30 10° NNW visible
